Tracking 19176 objects as of 25-May-2018
HD Live streaming from Space Station
objects crossing your sky now

NOAA 16 DEB

Track NOAA 16 DEB now!
10-day predictions


NORAD ID: 41282
Int'l Code: 2000-055GJ
Perigee: 860.1 km
Apogee: 957.1 km
Inclination: 98.9 °
Period: 103.0 minutes
Semi major axis: 7279 km
RCS: Unknown
Launch date: September 21, 2000
Source: United States (US)
Launch site: AIR FORCE WESTERN TEST RANGE (AFWTR)

Note: This is SATELLITE DEBRIS
aabbcc
Your satellite tracking list
Your tracking list is empty




NASA's NSSDC Master Catalog

Two Line Element Set (TLE):
1 41282U 00055GJ  18144.40757266  .00000668  00000-0  49363-3 0  9990
2 41282  98.8719 195.7089 0066619 282.5986  76.7733 13.97783261123295
Source of the keplerian elements: AFSPC